Time,TemperatureF,DewpointF,PressureIn,WindDirection,WindDirectionDegrees,WindSpeedMPH,WindSpeedGustMPH,Humidity,HourlyPrecipIn,Conditions,Clouds,dailyrainin,SolarRadiationWatts/m^2,SoftwareType,DateUTC
2013-07-21 00:01:00,88.0,68.0,-100.00,SSE,158,7.0,14.0,51,0.00,,,0.02,0.000000,,2013-07-21 07:01:00,
2013-07-21 00:43:00,89.0,68.0,-100.00,SSE,152,5.0,11.0,51,0.00,,,-99.99,0.000000,,2013-07-21 07:43:00,
2013-07-21 00:53:00,89.0,68.0,-100.00,SSE,152,5.0,11.0,51,0.00,,,-99.99,0.000000,,2013-07-21 07:53:00,
2013-07-21 01:01:00,89.0,68.0,-100.00,SSE,152,5.0,11.0,51,0.00,,,-99.99,0.000000,,2013-07-21 08:01:00,
2013-07-21 01:33:00,88.0,67.0,-100.00,SE,140,4.0,17.0,50,0.00,,,0.02,0.000000,,2013-07-21 08:33:00,
2013-07-21 01:43:00,88.0,67.0,-100.00,SE,140,4.0,17.0,50,0.00,,,0.02,0.000000,,2013-07-21 08:43:00,
2013-07-21 01:52:00,88.0,67.0,-100.00,SE,140,4.0,17.0,50,0.00,,,0.02,0.000000,,2013-07-21 08:52:00,
2013-07-21 02:02:00,88.0,67.0,-100.00,SE,140,4.0,17.0,50,0.00,,,0.02,0.000000,,2013-07-21 09:02:00,
2013-07-21 02:32:00,87.0,66.0,-100.00,SE,137,4.0,12.0,50,0.00,,,0.02,0.000000,,2013-07-21 09:32:00,
2013-07-21 02:42:00,87.0,66.0,-100.00,SE,137,4.0,12.0,50,0.00,,,0.02,0.000000,,2013-07-21 09:42:00,
2013-07-21 02:52:00,87.0,66.0,-100.00,SE,137,4.0,12.0,50,0.00,,,0.02,0.000000,,2013-07-21 09:52:00,
2013-07-21 03:01:00,87.0,66.0,-100.00,SE,137,4.0,12.0,50,0.00,,,0.02,0.000000,,2013-07-21 10:01:00,
2013-07-21 03:43:00,85.0,70.0,-100.00,SSE,165,8.0,8.0,61,0.00,,,0.02,0.000000,,2013-07-21 10:43:00,
2013-07-21 03:52:00,85.0,70.0,-100.00,SSE,165,8.0,8.0,61,0.00,,,0.02,0.000000,,2013-07-21 10:52:00,
2013-07-21 04:02:00,85.0,70.0,-100.00,SSE,165,8.0,8.0,61,0.00,,,0.02,0.000000,,2013-07-21 11:02:00,
2013-07-21 04:43:00,84.0,71.0,-100.00,SSE,148,9.0,13.0,65,0.00,,,0.02,0.000000,,2013-07-21 11:43:00,
2013-07-21 04:52:00,84.0,71.0,-100.00,SSE,148,9.0,13.0,65,0.00,,,0.02,0.000000,,2013-07-21 11:52:00,
2013-07-21 05:01:00,84.0,71.0,-100.00,SSE,148,9.0,13.0,65,0.00,,,0.02,0.000000,,2013-07-21 12:01:00,
2013-07-21 05:43:00,85.0,73.0,-100.00,SE,140,5.0,15.0,68,0.00,,,0.02,0.000000,,2013-07-21 12:43:00,
2013-07-21 05:53:00,85.0,73.0,-100.00,SE,140,5.0,15.0,68,0.00,,,0.02,0.000000,,2013-07-21 12:53:00,
2013-07-21 06:01:00,85.0,73.0,-100.00,SE,140,5.0,15.0,68,0.00,,,0.02,0.000000,,2013-07-21 13:01:00,
2013-07-21 06:43:00,83.0,73.0,-100.00,SE,127,10.0,14.0,72,0.00,,,0.02,0.000000,,2013-07-21 13:43:00,
2013-07-21 06:53:00,83.0,73.0,-100.00,SE,127,10.0,14.0,72,0.00,,,0.02,0.000000,,2013-07-21 13:53:00,
2013-07-21 07:01:00,83.0,73.0,-100.00,SE,127,10.0,14.0,72,0.00,,,0.02,0.000000,,2013-07-21 14:01:00,
2013-07-21 07:43:00,81.0,73.0,-100.00,SE,129,12.0,13.0,77,0.00,,,0.02,0.000000,,2013-07-21 14:43:00,
2013-07-21 07:53:00,81.0,73.0,-100.00,SE,129,12.0,13.0,77,0.00,,,0.02,0.000000,,2013-07-21 14:53:00,
2013-07-21 08:02:00,81.0,73.0,-100.00,SE,129,12.0,13.0,77,0.00,,,0.02,0.000000,,2013-07-21 15:02:00,
2013-07-21 08:43:00,81.0,77.0,-100.00,SE,133,7.0,19.0,89,0.00,,,0.00,4.000000,,2013-07-21 15:43:00,
2013-07-21 08:53:00,81.0,77.0,-100.00,SE,133,7.0,19.0,89,0.00,,,0.00,4.000000,,2013-07-21 15:53:00,
2013-07-21 09:01:00,81.0,77.0,-100.00,SE,133,7.0,19.0,89,0.00,,,0.00,4.000000,,2013-07-21 16:01:00,
2013-07-21 09:32:00,76.0,74.0,-100.00,SE,124,10.0,15.0,92,0.07,,,0.07,5.000000,,2013-07-21 16:32:00,
2013-07-21 09:43:00,76.0,74.0,-100.00,SE,124,10.0,15.0,92,0.07,,,0.07,5.000000,,2013-07-21 16:43:00,
2013-07-21 09:52:00,76.0,74.0,-100.00,SE,124,10.0,15.0,92,0.07,,,0.07,5.000000,,2013-07-21 16:52:00,
2013-07-21 10:02:00,76.0,74.0,-100.00,SE,124,10.0,15.0,92,0.07,,,0.07,5.000000,,2013-07-21 17:02:00,
2013-07-21 10:43:00,75.0,73.0,-100.00,East,98,9.0,15.0,95,0.10,,,0.17,14.000000,,2013-07-21 17:43:00,
2013-07-21 10:53:00,75.0,73.0,-100.00,East,98,9.0,15.0,95,0.10,,,0.17,14.000000,,2013-07-21 17:53:00,
2013-07-21 11:01:00,75.0,73.0,-100.00,East,98,9.0,15.0,95,0.10,,,0.17,14.000000,,2013-07-21 18:01:00,
2013-07-21 11:32:00,77.0,74.0,-100.00,SE,130,6.0,17.0,90,0.09,,,0.26,39.000000,,2013-07-21 18:32:00,
2013-07-21 11:43:00,77.0,74.0,-100.00,SE,130,6.0,17.0,90,0.09,,,0.26,39.000000,,2013-07-21 18:43:00,
2013-07-21 11:52:00,77.0,74.0,-100.00,SE,130,6.0,17.0,90,0.09,,,0.26,39.000000,,2013-07-21 18:52:00,
2013-07-21 12:01:00,77.0,74.0,-100.00,SE,130,6.0,17.0,90,0.09,,,0.26,39.000000,,2013-07-21 19:01:00,
2013-07-21 12:42:00,77.0,71.0,-100.00,East,81,5.0,9.0,82,0.04,,,0.30,123.000000,,2013-07-21 19:42:00,
2013-07-21 12:52:00,77.0,71.0,-100.00,East,81,5.0,9.0,82,0.04,,,0.30,123.000000,,2013-07-21 19:52:00,
2013-07-21 13:01:00,77.0,71.0,-100.00,East,81,5.0,9.0,82,0.04,,,0.30,123.000000,,2013-07-21 20:01:00,
2013-07-21 13:32:00,82.0,70.0,-100.00,NE,51,8.0,8.0,68,0.00,,,0.30,454.000000,,2013-07-21 20:32:00,
2013-07-21 13:43:00,82.0,70.0,-100.00,NE,51,8.0,8.0,68,0.00,,,0.30,454.000000,,2013-07-21 20:43:00,
2013-07-21 13:52:00,82.0,70.0,-100.00,NE,51,8.0,8.0,68,0.00,,,0.30,454.000000,,2013-07-21 20:52:00,
2013-07-21 14:01:00,82.0,70.0,-100.00,NE,51,8.0,8.0,68,0.00,,,0.30,454.000000,,2013-07-21 21:01:00,
2013-07-21 14:43:00,85.0,69.0,-100.00,NE,50,4.0,12.0,58,0.00,,,0.30,952.000000,,2013-07-21 21:43:00,
2013-07-21 14:52:00,85.0,69.0,-100.00,NE,50,4.0,12.0,58,0.00,,,0.30,952.000000,,2013-07-21 21:52:00,
2013-07-21 15:01:00,85.0,69.0,-100.00,NE,50,4.0,12.0,58,0.00,,,0.30,952.000000,,2013-07-21 22:01:00,
2013-07-21 15:43:00,89.0,69.0,-100.00,East,79,8.0,11.0,52,0.00,,,0.30,1183.000000,,2013-07-21 22:43:00,
2013-07-21 15:52:00,89.0,69.0,-100.00,East,79,8.0,11.0,52,0.00,,,0.30,1183.000000,,2013-07-21 22:52:00,
2013-07-21 16:01:00,89.0,69.0,-100.00,East,79,8.0,11.0,52,0.00,,,0.30,1183.000000,,2013-07-21 23:01:00,
2013-07-21 16:43:00,91.0,71.0,-100.00,East,97,5.0,14.0,53,0.00,,,0.30,1076.000000,,2013-07-21 23:43:00,
2013-07-21 16:53:00,91.0,71.0,-100.00,East,97,5.0,14.0,53,0.00,,,0.30,1076.000000,,2013-07-21 23:53:00,
2013-07-21 17:01:00,91.0,71.0,-100.00,East,97,5.0,14.0,53,0.00,,,0.30,1076.000000,,2013-07-22 00:01:00,
2013-07-21 18:42:00,85.0,73.0,-100.00,South,173,4.0,14.0,68,0.00,,,0.30,212.000000,,2013-07-22 01:42:00,
2013-07-21 18:52:00,85.0,73.0,-100.00,South,173,4.0,14.0,68,0.00,,,0.30,212.000000,,2013-07-22 01:52:00,
2013-07-21 19:02:00,85.0,73.0,-100.00,South,173,4.0,14.0,68,0.00,,,0.30,212.000000,,2013-07-22 02:02:00,
2013-07-21 19:32:00,88.0,74.0,-100.00,South,181,1.0,10.0,64,0.00,,,0.30,426.000000,,2013-07-22 02:32:00,
2013-07-21 19:43:00,88.0,74.0,-100.00,South,181,1.0,10.0,64,0.00,,,0.30,426.000000,,2013-07-22 02:43:00,
2013-07-21 19:52:00,88.0,74.0,-100.00,South,181,1.0,10.0,64,0.00,,,0.30,426.000000,,2013-07-22 02:52:00,
2013-07-21 20:01:00,88.0,74.0,-100.00,South,181,1.0,10.0,64,0.00,,,0.30,426.000000,,2013-07-22 03:01:00,
2013-07-21 20:33:00,89.0,77.0,-100.00,SE,126,1.0,6.0,68,0.00,,,0.30,147.000000,,2013-07-22 03:33:00,
2013-07-21 20:43:00,89.0,77.0,-100.00,SE,126,1.0,6.0,68,0.00,,,0.30,147.000000,,2013-07-22 03:43:00,
2013-07-21 20:53:00,89.0,77.0,-100.00,SE,126,1.0,6.0,68,0.00,,,0.30,147.000000,,2013-07-22 03:53:00,
2013-07-21 21:01:00,89.0,77.0,-100.00,SE,126,1.0,6.0,68,0.00,,,0.30,147.000000,,2013-07-22 04:01:00,
2013-07-21 21:33:00,85.0,78.0,-100.00,SE,126,3.0,3.0,79,0.00,,,0.30,14.000000,,2013-07-22 04:33:00,
2013-07-21 21:43:00,85.0,78.0,-100.00,SE,126,3.0,3.0,79,0.00,,,0.30,14.000000,,2013-07-22 04:43:00,
2013-07-21 22:01:00,85.0,78.0,-100.00,SE,126,3.0,3.0,79,0.00,,,0.30,14.000000,,2013-07-22 05:01:00,
2013-07-21 22:32:00,85.0,78.0,-100.00,ESE,121,3.0,4.0,80,0.00,,,0.30,0.000000,,2013-07-22 05:32:00,
2013-07-21 22:43:00,85.0,78.0,-100.00,ESE,121,3.0,4.0,80,0.00,,,0.30,0.000000,,2013-07-22 05:43:00,
2013-07-21 22:52:00,85.0,78.0,-100.00,ESE,121,3.0,4.0,80,0.00,,,0.30,0.000000,,2013-07-22 05:52:00,
2013-07-21 23:01:00,85.0,78.0,-100.00,ESE,121,3.0,4.0,80,0.00,,,0.30,0.000000,,2013-07-22 06:01:00,
2013-07-21 23:43:00,84.0,76.0,-100.00,ESE,122,2.0,4.0,78,0.00,,,0.30,0.000000,,2013-07-22 06:43:00,
2013-07-21 23:52:00,84.0,76.0,-100.00,ESE,122,2.0,4.0,78,0.00,,,0.30,0.000000,,2013-07-22 06:52:00,